Regional Weather Roundup
Issued by NWS

Home | Current Version | Previous Version | Graphics & Text | Print | Product List | Glossary On
Versions: 1 2 3 4 5 6 7 8 9 10 11 12 13 14 15 16 17 18 19 20 21 22 23 24 25 26 27 28 29 30 31 32 33 34 35 36 37 38 39 40 41 42 43 44 45 46 47 48 49 50
000
ASUS43 KMPX 291201
RWRMN
WEATHER ROUNDUP FOR MINNESOTA
NATIONAL WEATHER SERVICE TWIN CITIES/CHANHASSEN MN
700 AM CDT FRI APR 29 2016


NOTE: "FAIR" INDICATES FEW OR NO CLOUDS BELOW 12,000 FEET WITH NO
SIGNIFICANT WEATHER AND/OR OBSTRUCTIONS TO VISIBILITY. N/A MEANS
CURRENT SKY AND/OR WEATHER CONDITIONS ARE NOT AVAILABLE.

MNZ060>063-068>070-291300-
   Twin Cities Metro

CITY           SKY/WX    TMP DP  RH WIND       PRES   REMARKS
TWIN CITIES    CLOUDY    37  35  92 SW5       30.17R FOG
6HR MIN TEMP:  34; 6HR MAX TEMP:  38;

ST PAUL        FOG       35  35 100 CALM      30.18S VSB<1/4
CRYSTAL        FOG       35  34  96 CALM      30.16R VSB 1/4
BLAINE         FOG       37  37 100 CALM      30.16R VSB 1/2
EDEN PRAIRIE   CLOUDY    37  34  89 W3        30.17R FOG
6HR MIN TEMP:  35; 6HR MAX TEMP:  39;

SOUTH ST PAUL  CLOUDY    35  35  97 CALM      30.17R FOG
LAKE ELMO      CLOUDY    34  34 100 CALM      30.17R FOG
$$
MNZ001>005-007-008-013>017-022>024-027-028-291300-
   Northwest Minnesota

CITY           SKY/WX    TMP DP  RH WIND       PRES   REMARKS
BEMIDJI        PTCLDY    34  29  83 N5        30.17R WCI  30
HALLOCK        CLEAR     37  28  70 NE7       30.23R
ROSEAU         CLEAR     34  28  80 CALM      30.23S
WARROAD        CLEAR     36  32  87 N7        30.24S
THIEF RVR FALL PTCLDY    39  27  60 NE9       30.21S
CROOKSTON      CLOUDY    37  30  75 NE6       30.20S
FOSSTON        CLOUDY    36  28  75 NE3       30.19R
DETROIT LAKES  CLOUDY    36  34  93 CALM      30.17R FOG
MOORHEAD       CLOUDY    37  34  87 SE3       30.17R
PARK RAPIDS    CLOUDY    32  29  88 CALM      30.15S
MAHNOMEN       FAIR      33  29  83 E5        30.16S WCI  29
$$
MNZ006-009>011-018-025>026-291300-
   North Central Minnesota

CITY           SKY/WX    TMP DP  RH WIND       PRES   REMARKS
BAUDETTE       CLEAR     37  28  70 NE8       30.22R
FLAG ISLAND    CLEAR     39  32  75 NE7       30.24S
INTL FALLS     CLOUDY    36  30  79 NE6       30.21R
6HR MIN TEMP:  31; 6HR MAX TEMP:  40;

WASKISH        CLOUDY    37  30  75 NE5       30.20S
BIG FORK       CLOUDY    28  27  93 MISG      30.18S
LONGVILLE      CLOUDY    28  27  93 CALM      30.16S
GRAND RAPIDS   PTCLDY    28  23  80 CALM      30.18S
CRANE LAKE     CLOUDY    28  28 100 CALM      30.22S
ORR            CLOUDY    28  25  86 CALM      30.17R
COOK           CLOUDY    28  27  93 CALM      30.19R
WALKER         FAIR      31  26  84 CALM      30.16R
$$
MNZ012-019>021-037-291300-
   Northeast Minnesota

CITY           SKY/WX    TMP DP  RH WIND       PRES   REMARKS
DULUTH         PTCLDY    34  26  72 NE5       30.17R WCI  30
6HR MIN TEMP:  29; 6HR MAX TEMP:  34;

ELY            CLOUDY    36  30  80 CALM      30.19R
HIBBING        PTCLDY    28  26  92 CALM      30.17S
EVELETH        CLOUDY    32  32 100 CALM      30.18S
DULUTH HARBOR  CLEAR     34  32  93 CALM      30.21R
TWO HARBORS    CLEAR     36  28  75 NE3       30.16S
SILVER BAY     SUNNY     30  27  86 CALM      30.16F
GRAND MARAIS     N/A     40  28  62 N6        30.19R
G MARAIS ARPRT SUNNY     30  25  80 N7        30.17R WCI  23
$$
MNZ029>031-032-039>041-046>048-054>057-064-291300-
   West Central Minnesota

CITY           SKY/WX    TMP DP  RH WIND       PRES   REMARKS
FERGUS FALLS   CLOUDY    36  36 100 S3        30.17R FOG
WHEATON        CLEAR     39  37  93 SW5       30.20S
MORRIS         CLOUDY    37  37 100 SW5       30.18R
ALEXANDRIA     CLOUDY    35  34  96 W6        30.18R WCI  30
ELBOW LAKE     FOG       33  33 100 SW7       30.18R VSB 1/4 WCI  27
WADENA         CLOUDY    30  30 100 CALM      30.16R FOG
GLENWOOD       FOG       36  34  93 W3        30.19R VSB 3/4
APPLETON       FOG       36  34  93 CALM      30.19R VSB 3/4
BENSON         CLOUDY    37  36  93 CALM      30.19R
ORTONVILLE     PTCLDY    36  34  93 N3        30.18S FOG
MADISON        FOG       36  34  93 NE3       30.19R VSB 1/4
WILLMAR        FAIR      37  37 100 N3        30.20R FOG
$$
MNZ033>034-036-042>043-049>051-058-059-291300-
   Central Minnesota

CITY           SKY/WX    TMP DP  RH WIND       PRES   REMARKS
ST CLOUD       CLOUDY    32  32 100 CALM      30.17R
6HR MIN TEMP:  31; 6HR MAX TEMP:  39;

SAUK CENTRE    FOG       32  32 100 SW6       30.18R VSB 1/2 WCI  26
PAYNESVILLE    FOG       33  33 100 W5        30.20R VSB 3/4 WCI  28
AITKIN         CLOUDY    30  27  86 CALM      30.15S
PINE RIVER     CLOUDY    30  27  86 CALM      30.20R
BRAINERD       CLOUDY    31  29  92 CALM      30.17R
STAPLES        CLOUDY    30  30 100 CALM      30.17R
LONG PRAIRIE   FAIR      32  32 100 CALM      30.17R FOG
LITTLE FALLS   PTCLDY    32  32 100 CALM      30.17R
LITCHFIELD     CLOUDY    39  39 100 CALM      30.20R
BUFFALO        CLOUDY    37  36  95 CALM      30.19R FOG
MAPLE LAKE     FOG       38  38  99 SW5       30.19R VSB 1
HUTCHINSON     FOG       34  34 100 CALM      30.20R VSB 1/2
$$
MNZ037-044-045-052-053-291300-
   East Central Minnesota

CITY           SKY/WX    TMP DP  RH WIND       PRES   REMARKS
PRINCETON        N/A     34  34 100 N3        30.17R
MORA           CLOUDY    32  28  86 CALM      30.18S
CAMBRIDGE      CLOUDY    36  28  75 CALM      30.15R
RUSH CITY      CLOUDY    32  29  90 CALM      30.18R
MOOSE LAKE     CLEAR     32  28  86 CALM      30.16S
HINCKLEY       FAIR      32  32 100 CALM      30.17S
CLOQUET        CLOUDY    30  27  86 N3        30.17S
MCGREGOR       CLOUDY    34  32  93 NE3       30.17S
$$
MNZ071>073-080-081-089-090-097-098-291300-
   Southwest Minnesota

CITY           SKY/WX    TMP DP  RH WIND       PRES   REMARKS
MONTEVIDEO     CLEAR     36  36 100 CALM      30.21R FOG
GRANITE FALLS  MOCLDY    38  37  96 N5        30.21R FOG
CANBY          FOG       40  40  98 CALM      30.19R VSB 1
MARSHALL       CLOUDY    36  36 100 NE5       30.18S FOG
REDWOOD FALLS  CLOUDY    38  36  92 CALM      30.19R
OLIVIA         CLEAR     34  32  93 CALM      30.18R
PIPESTONE      CLOUDY    37  36  93 CALM      30.15R
WINDOM         CLOUDY    37  36  93 CALM      30.16R
WORTHINGTON    CLOUDY    38  35  89 N5        30.16R
JACKSON        CLOUDY    37  34  87 NE3       30.15S FOG
TRACY          CLOUDY    37  37  99 NE7       30.18R
SLAYTON        CLOUDY    36  36 100 NE6       30.16R
$$
MNZ065>067-074>077-082>085-091>093-291300-
   South Central Minnesota

CITY           SKY/WX    TMP DP  RH WIND       PRES   REMARKS
MANKATO        CLOUDY    37  34  87 N7        30.19R
NEW ULM        CLOUDY    37  36  93 CALM      30.19R
ST JAMES       CLOUDY    34  32  93 N6        30.18S WCI  29
FAIRMONT       CLOUDY    39  28  65 N5        30.16R
GLENCOE        FOG       37  37 100 CALM      30.19R VSB<1/4
FARIBAULT      CLEAR     34  34 100 CALM      30.17R
OWATONNA       CLEAR     36  34  93 N3        30.18R FOG
WASECA         CLOUDY    36  34  93 N3        30.19R
ALBERT LEA     CLOUDY    37  37 100 NE7       30.14R
$$
MNZ078>079-086>088-094>096-291300-
   Southeast Minnesota

CITY           SKY/WX    TMP DP  RH WIND       PRES   REMARKS
ROCHESTER      MOCLDY    37  36  96 N10       30.14S
6HR MIN TEMP:  37; 6HR MAX TEMP:  38;

RED WING       CLOUDY    37  36  93 CALM      30.16S FOG
STANTON        CLOUDY    38  36  92 CALM      30.17R FOG
DODGE CENTER   PTCLDY    36  36 100 N6        30.15R FOG
WINONA         CLOUDY    39  36  87 NW3       30.17R
AUSTIN         MOCLDY    36  34  93 CALM      30.14R FOG
PRESTON        CLOUDY    36  34  94 NE7       30.14S
$$
ABBREVIATIONS USED IN REMARKS
   TC - TEMPERATURES IN CELSIUS
  WCI - WIND CHILL INDEX
   HX - HEAT INDEX
  VSB - VISIBILITY
$$




USA.gov is the U.S. government's official web portal to all federal, state and local government web resources and services.